This demonstration page uses our WeatherBlox Daily Observations layout. Learn more.

41.55636, -103.73856

Hourly Observations for April 28, 2019

Temp ( °F °C ) Dew Point ( °F °C ) Humidity (%) Winds ( mph kmh ) Pressure ( in mb ) Visibility ( mi km ) Precip ( " mm )
12:53 am 00:53 Clear 50 10 34 1.1 54 54 ESE 14 22 29.71 1006 10 16.09344 0 0
1:53 am 01:53 Clear 47 8.3 34 1.1 61 61 S 13 20 29.65 1004 10 16.09344 0 0
2:53 am 02:53 Clear 48 8.9 35 1.7 61 61 SE 14 22 29.65 1004 10 16.09344 0 0
3:53 am 03:53 Clear 42 5.6 35 1.7 76 76 E 13 20 29.65 1004 10 16.09344 0 0
4:53 am 04:53 Clear 40 4.4 35 1.7 83 83 ESE 16 26 29.65 1004 10 16.09344 0 0
5:53 am 05:53 Clear 38 3.3 35 1.7 89 89 ESE 17 28 29.65 1004 10 16.09344 0 0
6:53 am 06:53 Sunny 40 4.4 35 1.7 83 83 ESE 16 26 29.62 1003 10 16.09344 0 0
7:53 am 07:53 Sunny 43 6.1 36 2.2 76 76 ESE 20 31 29.62 1003 10 16.09344 0 0
8:53 am 08:53 Sunny 49 9.4 38 3.3 66 66 ESE 16 26 29.59 1002 10 16.09344 0 0
9:53 am 09:53 Sunny 57 13.9 41 5 55 55 E 16 26 29.56 1001 10 16.09344 0 0
10:53 am 10:53 Mostly Sunny 64 17.8 43 6.1 46 46 E 12 19 29.53 1000 10 16.09344 0 0
11:53 am 11:53 Partly Cloudy 69 20.6 44 6.7 41 41 VRB 5 7 29.5 999 10 16.09344 0 0
12:53 pm 12:53 Mostly Sunny 70 21.1 44 6.7 39 39 VRB 6 9 29.47 998 10 16.09344 0 0
1:53 pm 13:53 Sunny 70 21.1 45 7.2 41 41 ESE 14 22 29.47 998 10 16.09344 0 0
2:53 pm 14:53 Mostly Cloudy 65 18.3 44 6.7 47 47 NNE 28 44 29.5 999 10 16.09344 0 0
3:53 pm 15:53 Sunny 64 17.8 43 6.1 46 46 NNE 24 39 29.53 1000 10 16.09344 0 0
4:53 pm 16:53 Cloudy 57 13.9 38 3.3 49 49 NNW 28 44 29.68 1005 10 16.09344 0 0
5:53 pm 17:53 Mostly Sunny 53 11.7 34 1.1 48 48 N 24 39 29.71 1006 10 16.09344 0.001 0.001
6:53 pm 18:53 Cloudy 51 10.6 31 -0.6 46 46 NNW 20 31 29.8 1009 10 16.09344 0 0
7:53 pm 19:53 Cloudy 48 8.9 27 -2.8 44 44 N 15 24 29.85 1011 10 16.09344 0 0
8:53 pm 20:53 Cloudy 46 7.8 27 -2.8 47 47 N 8 13 29.91 1013 10 16.09344 0 0
9:53 pm 21:53 Cloudy 45 7.2 27 -2.8 49 49 NW 6 9 29.91 1013 10 16.09344 0 0
10:53 pm 22:53 Clear 40 4.4 18 -7.8 41 41 N 22 35 29.97 1015 10 16.09344 0 0
11:53 pm 23:53 Cloudy 38 3.3 18 -7.8 44 44 NNW 28 44 29.97 1015 10 16.09344 0 0

Powered by AerisWeather